Time,TemperatureF,DewpointF,PressureIn,WindDirection,WindDirectionDegrees,WindSpeedMPH,WindSpeedGustMPH,Humidity,HourlyPrecipIn,Conditions,Clouds,dailyrainin,SoftwareType,DateUTC
2013-03-02 00:06:00,54.6,41.0,30.04,West,281,0.0,8.0,60,0.00,,,0.00,weatherlink.com 1.10,2013-03-02 05:06:00,
2013-03-02 00:21:00,54.6,41.0,30.04,WSW,244,3.0,9.0,60,0.00,,,0.00,weatherlink.com 1.10,2013-03-02 05:21:00,
2013-03-02 00:36:00,54.5,39.0,30.03,West,271,0.0,8.0,57,0.00,,,0.00,weatherlink.com 1.10,2013-03-02 05:36:00,
2013-03-02 00:51:00,54.4,39.0,30.03,WSW,249,0.0,10.0,57,0.00,,,0.00,weatherlink.com 1.10,2013-03-02 05:51:00,
2013-03-02 01:06:00,54.2,40.0,30.03,SSW,203,0.0,4.0,60,0.00,,,0.00,weatherlink.com 1.10,2013-03-02 06:06:00,
2013-03-02 01:21:00,53.9,40.0,30.03,SW,234,0.0,5.0,60,0.00,,,0.00,weatherlink.com 1.10,2013-03-02 06:21:00,
2013-03-02 01:36:00,53.9,40.0,30.03,NE,49,0.0,6.0,60,0.00,,,0.00,weatherlink.com 1.10,2013-03-02 06:36:00,
2013-03-02 01:54:00,53.8,40.0,30.02,NNE,25,0.0,4.0,61,0.00,,,0.00,weatherlink.com 1.10,2013-03-02 06:54:00,
2013-03-02 02:06:00,53.9,41.0,30.03,North,1,2.0,7.0,61,0.00,,,0.00,weatherlink.com 1.10,2013-03-02 07:06:00,
2013-03-02 02:21:00,53.9,41.0,30.03,NW,315,1.0,6.0,61,0.00,,,0.00,weatherlink.com 1.10,2013-03-02 07:21:00,
2013-03-02 02:36:00,53.7,41.0,30.02,NW,325,0.0,4.0,62,0.00,,,0.00,weatherlink.com 1.10,2013-03-02 07:36:00,
2013-03-02 02:51:00,53.6,41.0,30.02,West,264,0.0,3.0,63,0.00,,,0.00,weatherlink.com 1.10,2013-03-02 07:51:00,
2013-03-02 03:06:00,53.6,41.0,30.03,NW,315,5.0,5.0,63,0.00,,,0.00,weatherlink.com 1.10,2013-03-02 08:06:00,
2013-03-02 03:21:00,53.5,41.0,30.02,WNW,285,1.0,5.0,63,0.00,,,0.00,weatherlink.com 1.10,2013-03-02 08:21:00,
2013-03-02 03:36:00,53.3,41.0,30.02,North,349,2.0,4.0,63,0.00,,,0.00,weatherlink.com 1.10,2013-03-02 08:36:00,
2013-03-02 03:51:00,53.3,41.0,30.02,NNW,328,1.0,8.0,63,0.00,,,0.00,weatherlink.com 1.10,2013-03-02 08:51:00,
2013-03-02 04:06:00,52.9,40.0,30.02,NNW,344,0.0,5.0,63,0.00,,,0.00,weatherlink.com 1.10,2013-03-02 09:06:00,
2013-03-02 04:21:00,52.7,40.0,30.02,WNW,296,0.0,4.0,62,0.00,,,0.00,weatherlink.com 1.10,2013-03-02 09:21:00,
2013-03-02 04:36:00,52.5,40.0,30.02,NNE,17,0.0,5.0,62,0.00,,,0.00,weatherlink.com 1.10,2013-03-02 09:36:00,
2013-03-02 04:51:00,51.7,41.0,30.02,ENE,77,1.0,3.0,67,0.00,,,0.00,weatherlink.com 1.10,2013-03-02 09:51:00,
2013-03-02 05:22:00,50.4,41.0,30.01,NE,46,0.0,3.0,70,0.00,,,0.00,weatherlink.com 1.10,2013-03-02 10:22:00,
2013-03-02 05:52:00,49.4,41.0,30.00,East,82,0.0,0.0,73,0.00,,,0.00,weatherlink.com 1.10,2013-03-02 10:52:00,
2013-03-02 06:07:00,48.9,41.0,30.01,East,82,0.0,0.0,74,0.00,,,0.00,weatherlink.com 1.10,2013-03-02 11:07:00,
2013-03-02 06:22:00,48.1,41.0,30.01,East,82,0.0,0.0,76,0.00,,,0.00,weatherlink.com 1.10,2013-03-02 11:22:00,
2013-03-02 06:37:00,47.8,41.0,30.01,East,82,0.0,0.0,78,0.00,,,0.00,weatherlink.com 1.10,2013-03-02 11:37:00,
2013-03-02 06:52:00,48.0,41.0,30.01,ENE,68,0.0,4.0,77,0.00,,,0.00,weatherlink.com 1.10,2013-03-02 11:52:00,
2013-03-02 07:07:00,48.0,41.0,30.02,ENE,66,0.0,3.0,76,0.00,,,0.00,weatherlink.com 1.10,2013-03-02 12:07:00,
2013-03-02 07:22:00,48.4,41.0,30.02,ENE,65,1.0,2.0,76,0.00,,,0.00,weatherlink.com 1.10,2013-03-02 12:22:00,
2013-03-02 07:37:00,49.9,41.0,30.04,North,6,1.0,3.0,71,0.00,,,0.00,weatherlink.com 1.10,2013-03-02 12:37:00,
2013-03-02 07:52:00,49.3,41.0,30.05,NW,313,1.0,4.0,74,0.00,,,0.00,weatherlink.com 1.10,2013-03-02 12:52:00,
2013-03-02 08:07:00,48.6,42.0,30.06,North,355,0.0,1.0,77,0.00,,,0.00,weatherlink.com 1.10,2013-03-02 13:07:00,
2013-03-02 08:22:00,47.9,43.0,30.05,ENE,69,0.0,1.0,83,0.02,,,0.02,weatherlink.com 1.10,2013-03-02 13:22:00,
2013-03-02 08:37:00,47.6,44.0,30.06,NNE,32,0.0,0.0,86,0.02,,,0.02,weatherlink.com 1.10,2013-03-02 13:37:00,
2013-03-02 08:52:00,48.2,43.0,30.05,ENE,68,1.0,2.0,83,0.02,,,0.02,weatherlink.com 1.10,2013-03-02 13:52:00,
2013-03-02 09:07:00,49.1,43.0,30.06,NE,40,0.0,3.0,79,0.02,,,0.02,weatherlink.com 1.10,2013-03-02 14:07:00,
2013-03-02 09:22:00,49.7,41.0,30.06,North,356,3.0,4.0,73,0.00,,,0.02,weatherlink.com 1.10,2013-03-02 14:22:00,
2013-03-02 09:37:00,50.8,42.0,30.05,NE,34,2.0,4.0,71,0.00,,,0.02,weatherlink.com 1.10,2013-03-02 14:37:00,
2013-03-02 09:52:00,52.4,44.0,30.06,NNW,347,3.0,3.0,72,0.00,,,0.02,weatherlink.com 1.10,2013-03-02 14:52:00,
2013-03-02 10:07:00,51.6,40.0,30.08,NW,317,2.0,13.0,66,0.00,,,0.02,weatherlink.com 1.10,2013-03-02 15:07:00,
2013-03-02 10:22:00,52.8,41.0,30.08,NNW,340,5.0,10.0,64,0.00,,,0.02,weatherlink.com 1.10,2013-03-02 15:22:00,
2013-03-02 10:37:00,53.2,42.0,30.08,NNW,330,3.0,11.0,66,0.00,,,0.02,weatherlink.com 1.10,2013-03-02 15:37:00,
2013-03-02 10:52:00,52.2,42.0,30.10,SW,224,0.0,7.0,69,0.00,,,0.02,weatherlink.com 1.10,2013-03-02 15:52:00,
2013-03-02 11:07:00,52.3,44.0,30.09,NW,306,1.0,7.0,73,0.00,,,0.02,weatherlink.com 1.10,2013-03-02 16:07:00,
2013-03-02 11:22:00,55.7,46.0,30.09,North,8,2.0,10.0,69,0.00,,,0.02,weatherlink.com 1.10,2013-03-02 16:22:00,
2013-03-02 11:37:00,57.8,43.0,30.09,NE,55,2.0,10.0,58,0.00,,,0.02,weatherlink.com 1.10,2013-03-02 16:37:00,
2013-03-02 11:52:00,57.6,41.0,30.09,NW,318,4.0,9.0,55,0.00,,,0.02,weatherlink.com 1.10,2013-03-02 16:52:00,
2013-03-02 12:07:00,57.6,40.0,30.07,WNW,302,2.0,13.0,52,0.00,,,0.02,weatherlink.com 1.10,2013-03-02 17:07:00,
2013-03-02 12:22:00,57.6,41.0,30.08,WSW,240,6.0,12.0,54,0.00,,,0.02,weatherlink.com 1.10,2013-03-02 17:22:00,
2013-03-02 12:37:00,57.5,42.0,30.07,WNW,291,2.0,12.0,56,0.00,,,0.02,weatherlink.com 1.10,2013-03-02 17:37:00,
2013-03-02 12:52:00,57.9,43.0,30.06,NNE,22,5.0,10.0,57,0.00,,,0.02,weatherlink.com 1.10,2013-03-02 17:52:00,
2013-03-02 13:09:00,59.1,42.0,30.05,ENE,77,2.0,8.0,54,0.00,,,0.02,weatherlink.com 1.10,2013-03-02 18:09:00,
2013-03-02 13:22:00,57.3,42.0,30.05,North,354,0.0,11.0,57,0.00,,,0.02,weatherlink.com 1.10,2013-03-02 18:22:00,
2013-03-02 13:37:00,56.7,42.0,30.04,North,352,3.0,10.0,59,0.00,,,0.02,weatherlink.com 1.10,2013-03-02 18:37:00,
2013-03-02 13:52:00,57.2,42.0,30.03,NNE,18,10.0,10.0,58,0.00,,,0.02,weatherlink.com 1.10,2013-03-02 18:52:00,
2013-03-02 14:07:00,57.1,41.0,30.02,WNW,302,2.0,13.0,56,0.00,,,0.02,weatherlink.com 1.10,2013-03-02 19:07:00,
2013-03-02 14:23:00,57.1,41.0,30.02,NNW,327,4.0,11.0,56,0.00,,,0.02,weatherlink.com 1.10,2013-03-02 19:23:00,
2013-03-02 14:38:00,58.5,41.0,30.01,WNW,293,5.0,11.0,53,0.00,,,0.02,weatherlink.com 1.10,2013-03-02 19:38:00,
2013-03-02 14:53:00,58.3,42.0,30.01,WSW,240,2.0,9.0,55,0.00,,,0.02,weatherlink.com 1.10,2013-03-02 19:53:00,
2013-03-02 15:08:00,58.1,41.0,30.01,NW,311,3.0,15.0,54,0.00,,,0.02,weatherlink.com 1.10,2013-03-02 20:08:00,
2013-03-02 15:23:00,57.8,41.0,30.01,SW,217,2.0,7.0,53,0.00,,,0.02,weatherlink.com 1.10,2013-03-02 20:23:00,
2013-03-02 15:38:00,57.1,41.0,30.01,SW,218,2.0,9.0,55,0.00,,,0.02,weatherlink.com 1.10,2013-03-02 20:38:00,
2013-03-02 15:53:00,57.0,40.0,30.01,NW,314,2.0,11.0,54,0.00,,,0.02,weatherlink.com 1.10,2013-03-02 20:53:00,
2013-03-02 16:08:00,57.3,41.0,30.01,West,264,8.0,9.0,54,0.00,,,0.02,weatherlink.com 1.10,2013-03-02 21:08:00,
2013-03-02 16:23:00,55.5,40.0,30.00,NE,44,0.0,9.0,56,0.00,,,0.02,weatherlink.com 1.10,2013-03-02 21:23:00,
2013-03-02 16:38:00,56.0,40.0,30.00,ENE,68,5.0,11.0,56,0.00,,,0.02,weatherlink.com 1.10,2013-03-02 21:38:00,
2013-03-02 16:54:00,55.1,41.0,30.00,WNW,290,1.0,6.0,60,0.00,,,0.02,weatherlink.com 1.10,2013-03-02 21:54:00,
2013-03-02 17:08:00,54.7,41.0,30.01,NE,38,7.0,10.0,61,0.00,,,0.02,weatherlink.com 1.10,2013-03-02 22:08:00,
2013-03-02 17:23:00,54.0,41.0,30.01,South,183,3.0,8.0,62,0.00,,,0.02,weatherlink.com 1.10,2013-03-02 22:23:00,
2013-03-02 17:38:00,54.0,42.0,30.01,WNW,287,1.0,5.0,63,0.00,,,0.02,weatherlink.com 1.10,2013-03-02 22:38:00,
2013-03-02 17:53:00,54.2,42.0,30.01,NW,323,4.0,9.0,63,0.00,,,0.02,weatherlink.com 1.10,2013-03-02 22:53:00,
2013-03-02 18:08:00,53.4,41.0,30.02,SW,218,0.0,4.0,64,0.00,,,0.02,weatherlink.com 1.10,2013-03-02 23:08:00,
2013-03-02 18:23:00,53.2,41.0,30.01,WNW,291,2.0,12.0,64,0.00,,,0.02,weatherlink.com 1.10,2013-03-02 23:23:00,
2013-03-02 18:38:00,52.7,41.0,30.01,WSW,240,1.0,7.0,65,0.00,,,0.02,weatherlink.com 1.10,2013-03-02 23:38:00,
2013-03-02 18:53:00,52.5,41.0,30.01,WNW,288,2.0,4.0,65,0.00,,,0.02,weatherlink.com 1.10,2013-03-02 23:53:00,
2013-03-02 19:08:00,52.3,41.0,30.02,WNW,295,0.0,7.0,65,0.00,,,0.02,weatherlink.com 1.10,2013-03-03 00:08:00,
2013-03-02 19:23:00,52.3,41.0,30.02,NW,321,1.0,4.0,65,0.00,,,0.02,weatherlink.com 1.10,2013-03-03 00:23:00,
2013-03-02 19:38:00,52.4,40.0,30.02,WSW,239,0.0,5.0,63,0.00,,,0.02,weatherlink.com 1.10,2013-03-03 00:38:00,
2013-03-02 19:53:00,52.1,40.0,30.02,WNW,290,4.0,7.0,63,0.00,,,0.02,weatherlink.com 1.10,2013-03-03 00:53:00,
2013-03-02 20:08:00,52.2,40.0,30.03,West,260,2.0,5.0,64,0.00,,,0.02,weatherlink.com 1.10,2013-03-03 01:08:00,
2013-03-02 20:23:00,52.3,39.0,30.03,NW,305,5.0,9.0,61,0.00,,,0.02,weatherlink.com 1.10,2013-03-03 01:23:00,
2013-03-02 20:38:00,52.4,39.0,30.02,NE,50,0.0,7.0,60,0.00,,,0.02,weatherlink.com 1.10,2013-03-03 01:38:00,
2013-03-02 20:53:00,52.1,38.0,30.03,WSW,251,2.0,7.0,59,0.00,,,0.02,weatherlink.com 1.10,2013-03-03 01:53:00,
2013-03-02 21:08:00,52.4,38.0,30.02,NNW,343,0.0,5.0,58,0.00,,,0.02,weatherlink.com 1.10,2013-03-03 02:08:00,
2013-03-02 21:23:00,52.3,38.0,30.03,WNW,283,0.0,10.0,58,0.00,,,0.02,weatherlink.com 1.10,2013-03-03 02:23:00,
2013-03-02 21:38:00,52.2,38.0,30.02,WSW,257,1.0,11.0,59,0.00,,,0.02,weatherlink.com 1.10,2013-03-03 02:38:00,
2013-03-02 21:53:00,52.2,38.0,30.03,WSW,250,0.0,7.0,58,0.00,,,0.02,weatherlink.com 1.10,2013-03-03 02:53:00,
2013-03-02 22:08:00,52.3,39.0,30.03,West,277,0.0,7.0,60,0.00,,,0.02,weatherlink.com 1.10,2013-03-03 03:08:00,
2013-03-02 22:23:00,52.5,40.0,30.02,ENE,58,1.0,10.0,62,0.00,,,0.02,weatherlink.com 1.10,2013-03-03 03:23:00,
2013-03-02 22:38:00,52.2,40.0,30.03,NNW,347,1.0,4.0,64,0.00,,,0.02,weatherlink.com 1.10,2013-03-03 03:38:00,
2013-03-02 22:53:00,52.5,40.0,30.03,WNW,290,1.0,8.0,62,0.00,,,0.02,weatherlink.com 1.10,2013-03-03 03:53:00,
2013-03-02 23:08:00,52.5,39.0,30.03,WNW,293,0.0,7.0,61,0.00,,,0.02,weatherlink.com 1.10,2013-03-03 04:08:00,
2013-03-02 23:23:00,52.2,39.0,30.02,NNE,15,0.0,7.0,61,0.00,,,0.02,weatherlink.com 1.10,2013-03-03 04:23:00,
2013-03-02 23:38:00,52.2,38.0,30.01,NE,37,2.0,9.0,60,0.00,,,0.02,weatherlink.com 1.10,2013-03-03 04:38:00,
2013-03-02 23:53:00,51.7,39.0,30.02,West,267,0.0,8.0,62,0.00,,,0.02,weatherlink.com 1.10,2013-03-03 04:53:00,